Location: ??????
(41.3164°N, 22.6615°E)
Time: 10:46:20
(UTC+00:00)

Meteor 1-11 - Pass Details

Date: 16 October 2021
Orbit: 841 x 886 km, 81.2° (Epoch: 07 December)

Event Time Altitude Azimuth Distance (km) Brightness Sun altitude
Rises 17:56:26 0° 348° (NNW) 3,406 7.6 -25.0°
Reaches altitude 10° 17:58:51 10° 348° (NNW) 2,469 6.9 -25.5°
Maximum altitude 18:04:26 78° 263° (W) 869 4.2 -26.5°
Enters shadow 18:06:47 36° 183° (S) 1,311 5.0 -26.9°
